Regional Weather Roundup
Issued by NWS Austin/San Antonio, TX

Current Version | Previous Version | Text Only | Print | Product List | Glossary On
Versions: 1 2 3 4 5 6 7 8 9 10 11 12 13 14 15 16 17 18 19 20 21 22 23 24 25 26 27 28 29 30 31 32 33 34 35 36 37 38 39 40 41 42 43 44 45 46 47 48 49 50
000
ASUS44 KEWX 032201
RWREWX
SOUTH TEXAS REGIONAL WEATHER ROUNDUP
NATIONAL WEATHER SERVICE AUSTIN/SAN ANTONIO TX
500 PM CDT MON OCT 03 2022

NOTE: "FAIR" INDICATED FEW OR NO CLOUDS BELOW 12,000 FEET WITH NO
SIGNIFICANT WEATHER AND/OR OBSTRUCTIONS TO VISIBILITY.

* - THESE STATIONS ARE NOT NWS OR FAA STATIONS...AND ARE NOT SUBJECT
    TO NWS AND FAA QUALITY CONTROL.

TXZ171-172-183>190-032300-
TEXAS HILL COUNTRY AND EDWARDS PLATEAU

CITY           SKY/WX    TMP DP  RH WIND       PRES   REMARKS
JUNCTION       SUNNY     86  38  18 CALM      30.10S
*LLANO         SUNNY     86  36  16 VRB7G13   30.08F
BURNET         SUNNY     85  38  18 VRB6      30.11F
*HORSESHOE BAY SUNNY     86  34  15 SE3       30.09S
*LAGO VISTA      N/A     89  39  17 SE3       30.10S
*KERRVILLE     PTSUNNY   83  42  23 SE7       30.10S
*FREDERICKSBRG SUNNY     83  36  18 NE3       30.10F
*ROCKSPRINGS   SUNNY     79  46  31 SE8       30.17F
*BOERNE        MOSUNNY   82  37  20 E7        30.09F
HONDO          PTSUNNY   84  45  25 S6        30.07F
*UVALDE        PTSUNNY   81  50  33 CALM      30.10F
DEL RIO        PTSUNNY   81  57  43 SE14      30.07S
*LAUGHLIN AFB  PTSUNNY   81  50  33 SE14      30.06S
*SPOFFORD      PTSUNNY   82  53  36 NE10      30.07F
CARRIZO SPRGS  CLOUDY    82  50  32 E5        30.06F
*FAITH RANCH   SUNNY     82  50  32 VRB5G12   30.09S
$$

TXZ173-191>194-202-209-217>225-228-032300-
CENTRAL AND SOUTH CENTRAL TEXAS

CITY           SKY/WX    TMP DP  RH WIND       PRES   REMARKS
GEORGETOWN     SUNNY     84  41  21 VRB3      30.10S
*TAYLOR        SUNNY     85  42  21 N6        30.08S
AUSTIN/BERGSTM MOSUNNY   86  41  20 SE3       30.05F
AUSTIN/MABRY   SUNNY     88  39  17 S5        30.07F
*PFLUGERVILLE  SUNNY     86  37  17 E8        30.06S
SAN MARCOS     MOSUNNY   90  41  18 VRB5      30.07F
NEW BRAUNFELS  MOSUNNY   86  39  19 E6        30.06S
*RANDOLPH AFB  MOSUNNY   85  35  16 CALM      30.04F
*SEGUIN        MOSUNNY   85  38  19 W3        30.04F
SAN ANTONIO    PTSUNNY   86  41  20 SE6       30.07F
STINSON FIELD  MOSUNNY   87  42  20 E5        30.04F
*KELLY FIELD   NOT AVBL
*PLEASANTON    MOSUNNY   85  44  23 SE3       30.08S
*KENEDY        MOSUNNY   85  44  23 NE6       30.06F
*LA GRANGE     NOT AVBL
*GIDDINGS      SUNNY     86  39  18 S6        30.07S
*GONZALES      SUNNY     88  44  21 S5        30.05F
$$

TXZ163>164-176>182-195>201-210>213-226-227-235-032300-
SOUTHEAST TEXAS

CITY           SKY/WX    TMP DP  RH WIND       PRES   REMARKS
COLLEGE STN    SUNNY     88  41  19 E8        30.05F
*BRYAN         SUNNY     88  42  20 CALM      30.08F
*CALDWELL      SUNNY     86  42  21 E7        30.06F
*CROCKETT      SUNNY     88  37  16 VRB3G13   30.05F
*BRENHAM       SUNNY     87  41  20 CALM        N/A
HUNTSVILLE     SUNNY     89  43  20 E6        30.04F
CONROE         SUNNY     87  47  24 VRB3      30.04F
HOUSTON BUSH   PTSUNNY   86  48  26 NE8       30.03F
HOUSTON HOBBY  PTSUNNY   88  46  23 NE3       30.02F
*HOUSTON SW AP NOT AVBL
PEARLAND       MOSUNNY   86  49  27 E5        30.05F
HOUSTON HOOKS  MOSUNNY   87  48  25 CALM      30.04F
ELLINGTON FLD  SUNNY     86  48  26 NE5       30.02F
SUGAR LAND     MOSUNNY   88  47  24 VRB3      30.03F
*HOUSTON EXEC  MOSUNNY   86  45  23 N6        30.06S
*CLEVELAND MUN NOT AVBL
*WHARTON       MOSUNNY   85  44  24 N5        30.05F
*COLUMBUS      FAIR      87  42  20 CALM      30.06S
*EAGLE LAKE    SUNNY     88  43  20 NE3       30.05S
$$

TXZ214>216-236>238-032300-
THE UPPER TEXAS COAST

CITY           SKY/WX    TMP DP  RH WIND       PRES   REMARKS
*ORANGE        SUNNY     89  46  21 N8        30.05S
PORT ARTHUR    SUNNY     87  53  31 NE7       30.02F
GALVESTON      MOSUNNY   82  50  32 CALM      30.05F
ANGLETON       MOSUNNY   87  45  23 VRB6      30.04F
*BAY CITY      MOSUNNY   85  48  27 N5        30.05S
PALACIOS       MOSUNNY   81  61  50 S9        30.04S
$$

TXZ229>234-239>247-032300-
TEXAS COASTAL BEND AND RIO GRANDE PLAINS

CITY           SKY/WX    TMP DP  RH WIND       PRES   REMARKS
VICTORIA       MOSUNNY   88  49  25 NE6       30.04F
*BEEVILLE      MOSUNNY   84  44  24 CALM      30.05S
ROCKPORT       CLOUDY    82  60  47 SE3       30.04S
*PORT ARANSAS  MOSUNNY  N/A N/A N/A E6        30.07S
*PORT LAVACA   MOSUNNY   87  45  23 E3        30.04F
*INGLESIDE     NOT AVBL
CORPUS CHRISTI CLOUDY    86  58  38 E5        30.05S
CORPUS NAS     NOT AVBL
*ROBSTOWN      CLOUDY    85  53  32 MISG      30.05S
ALICE          CLOUDY    84  58  40 SE6       30.04F
KINGSVILLE NAS CLOUDY    83  61  47 SE7       30.04F
COTULLA        CLOUDY    86  51  29 CALM      30.07S
LAREDO         CLOUDY    81  59  47 SE3       30.07S
$$

TXZ248>255-032300-
DEEP SOUTH TEXAS

CITY           SKY/WX    TMP DP  RH WIND       PRES   REMARKS
BROWNSVILLE    CLOUDY    84  63  49 NE8       30.02S
PORT ISABEL    CLOUDY    82  62  50 N9        30.03F
HARLINGEN      CLOUDY    83  60  45 NE14      30.02F
*HEBBRONVILLE  CLOUDY    81  55  40 NE3       30.08S
MCALLEN        CLOUDY    87  57  35 NE6       30.03S
*WESLACO       HAZE      85  58  39 N13       30.03S VSB 1/2
FALFURRIAS     CLOUDY    82  62  49 E6        30.04S
EDINBURG       CLOUDY    86  61  43 NE7       30.03F
*ZAPATA        CLOUDY    84  62  47 N3        30.06F
$$

TXZ213>215-236>238-242>244-246-247-251-254-255-032300-
CMAN STATIONS

STATION/POSITION TIME  TEMP    WIND        PRES    WAVE
                       AIR SEA DIR/SP/G            HT/PER
                 (UTC) (F)     (DEG/KT/KT) (MB)    (FT/S)
SEA RIM ST PARK  2100   80     170/  7/  9 1017.3
NORTH JETTY/GLS  2130   79 78  210/  2/  2 1016.3
EAGLE POINT      2130   79 77  150/  5/  5 1016.7
MORGANS POINT    2130   84 79  170/  4/  6 1016.6
MISSION/ARANSAS  2100   80     150/  5     1018.0
PORT O`CONNOR    2130   80 86  110/  4/  5 1017.1
PORT ARANSAS     2100   79      60/  6/  7   N/A
BAFFIN BAY       2130   79 81   20/  9/ 11 1018.0
PORT ISABEL      2130   80 83   10/  7/  9 1016.7
$$



USA.gov is the U.S. government's official web portal to all federal, state and local government web resources and services.